1537210800.62,4804,21.19,74694.0,4.27,-20.35,-20.59,0,*4E
1537210801.86,4805,21.19,74692.5,4.27,-20.19,-20.49,0,*40
1537210803.07,4806,21.19,74694.3,4.27,-20.15,-20.25,0,*45
1537210804.3,4807,21.19,74690.8,4.31,-19.99,-20.29,0,*41
1537210805.54,4808,21.19,74694.0,4.29,-20.15,-20.35,0,*44
1537210806.75,4809,21.19,74692.8,4.27,-20.19,-20.43,0,*46
1537210807.97,4810,21.19,74694.5,4.27,-20.39,-20.53,0,*4D
1537210809.19,4811,21.19,74694.0,4.27,-20.53,-20.73,0,*42
1537210810.42,4812,21.19,74694.8,4.29,-20.53,-20.63,0,*4E
1537210811.64,4813,21.19,74692.0,4.29,-20.29,-20.49,0,*4A
1537210812.85,4814,21.19,74696.3,4.27,-20.53,-20.69,0,*4C
1537210814.06,4815,21.19,74688.5,4.27,-20.73,-20.99,0,*40
1537210815.28,4816,21.19,74694.5,4.27,-20.69,-20.83,0,*43
1537210816.49,4817,21.19,74694.0,4.27,-20.35,-20.59,0,*4C
1537210817.75,4818,21.19,74692.8,4.25,-20.35,-20.53,0,*4B
1537210818.97,4819,21.19,74694.3,4.25,-20.69,-20.73,0,*41
1537210820.21,4820,21.19,74694.0,4.25,-20.73,-20.83,0,*4F
1537210821.43,4821,21.19,74694.0,4.25,-20.39,-20.59,0,*47
1537210822.67,4822,21.19,74692.0,4.25,-20.35,-20.59,0,*48
1537210823.88,4823,21.19,74692.0,4.27,-20.53,-20.69,0,*48
1537210825.07,4824,21.19,74692.0,4.27,-20.39,-20.69,0,*43
1537210826.29,4825,21.19,74692.8,4.27,-20.19,-20.25,0,*48
1537210827.51,4826,21.19,74692.5,4.25,-20.39,-20.59,0,*40
1537210828.73,4827,21.19,74692.5,4.27,-20.19,-20.39,0,*47
1537210829.94,4828,21.19,74688.0,4.27,-20.19,-20.39,0,*48
1537210831.16,4829,21.19,74690.8,4.29,-20.15,-20.29,0,*4A
1537210832.38,4830,21.19,74694.5,4.27,-20.19,-20.59,0,*47
1537210833.6,4831,21.19,74694.3,4.29,-20.35,-20.63,0,*4F
1537210834.81,4832,21.19,74692.8,4.27,-20.19,-20.25,0,*4E
1537210836.03,4833,21.19,74692.8,4.29,-20.15,-20.43,0,*4D
1537210837.26,4834,21.19,74694.0,4.29,-20.49,-20.63,0,*41
1537210838.51,4835,21.19,74692.3,4.29,-20.19,-20.49,0,*4D
1537210839.72,4836,21.19,74692.5,4.27,-20.09,-20.19,0,*44
1537210840.94,4837,21.19,74692.0,4.29,-20.09,-20.49,0,*4E
1537210842.14,4838,21.19,74692.3,4.27,-20.39,-20.59,0,*4D
1537210843.38,4839,21.19,74690.8,4.29,-20.15,-20.35,0,*46
1537210844.62,4840,21.19,74692.5,4.29,-20.15,-20.19,0,*46
1537210845.84,4841,21.19,74694.5,4.29,-20.29,-20.49,0,*4D
1537210847.07,4842,21.19,74692.0,4.29,-20.43,-20.53,0,*49
1537210848.28,4843,21.19,74690.3,4.29,-20.43,-20.63,0,*4B
1537210849.48,4844,21.19,74692.8,4.27,-20.69,-20.89,0,*4E
1537210850.7,4845,21.19,74692.8,4.29,-20.69,-20.79,0,*4E
1537210851.92,4846,21.19,74694.3,4.29,-20.69,-20.83,0,*48
1537210853.14,4847,21.19,74688.0,4.29,-20.79,-20.93,0,*49
1537210854.39,4848,21.19,74692.0,4.25,-20.89,-20.99,0,*4F
1537210855.61,4849,21.19,74692.0,4.27,-20.83,-20.89,0,*47
1537210856.83,4850,21.19,74692.5,4.27,-20.69,-20.83,0,*41
1537210858.04,4851,21.19,74692.0,4.27,-20.53,-20.69,0,*4D
1537210859.25,4852,21.19,74690.8,4.27,-20.53,-20.69,0,*4E
1537210860.45,4853,21.19,74694.0,4.27,-20.69,-20.89,0,*48
1537210861.69,4854,21.19,74696.0,4.27,-20.83,-20.99,0,*4A
1537210862.91,4855,21.19,74694.8,4.27,-20.49,-20.69,0,*42
1537210864.12,4856,21.19,74692.0,4.27,-20.49,-20.69,0,*41
1537210865.36,4857,21.19,74694.0,4.25,-20.25,-20.53,0,*41
1537210866.58,4858,21.19,74692.5,4.25,-20.69,-20.89,0,*41
1537210867.81,4859,21.19,74694.0,4.25,-20.73,-20.89,0,*4B
1537210869.05,4860,21.19,74696.5,4.25,-20.49,-20.69,0,*46
1537210870.25,4861,21.19,74692.0,4.27,-20.35,-20.69,0,*4E
1537210871.47,4862,21.19,74692.8,4.27,-20.49,-20.69,0,*46
1537210872.71,4863,21.19,74694.0,4.25,-20.19,-20.25,0,*48
1537210873.92,4864,21.19,74692.3,4.23,-20.29,-20.53,0,*4B
1537210875.18,4865,21.19,74694.3,4.25,-20.35,-20.53,0,*41
1537210876.38,4866,21.19,74692.0,4.23,-20.43,-20.63,0,*46
1537210877.61,4867,21.19,74690.8,4.25,-20.39,-20.59,0,*45
1537210878.84,4868,21.19,74694.8,4.27,-20.19,-20.19,0,*4E
1537210880.06,4869,21.19,74690.3,4.29,-20.15,-20.29,0,*4E
1537210881.28,4870,21.19,74694.3,4.27,-20.25,-20.49,0,*4D
1537210882.49,4871,21.19,74690.3,4.27,-20.25,-20.53,0,*47
1537210883.73,4872,21.19,74690.8,4.27,-20.15,-20.35,0,*47
1537210884.94,4873,21.19,74690.3,4.27,-20.49,-20.69,0,*46
1537210886.18,4874,21.19,74694.3,4.27,-20.35,-20.53,0,*43
1537210887.41,4875,21.19,74692.8,4.27,-20.35,-20.53,0,*42
1537210888.65,4876,21.19,74690.0,4.27,-20.35,-20.49,0,*4A
1537210889.86,4877,21.19,74694.0,4.27,-20.05,-20.19,0,*4D
1537210891.08,4878,21.19,74694.3,4.27,-19.95,-20.19,0,*41
1537210892.3,4879,21.19,74692.3,4.29,-20.19,-20.43,0,*4F
1537210893.51,4880,21.19,74694.3,4.29,-20.29,-20.35,0,*4B
1537210894.73,4881,21.19,74694.8,4.29,-20.15,-20.29,0,*48
1537210895.95,4882,21.19,74692.5,4.29,-20.05,-20.19,0,*49
1537210897.15,4883,21.19,74694.8,4.29,-19.99,-20.29,0,*44
1537210898.37,4884,21.19,74692.3,4.29,-19.91,-20.15,0,*44
1537210899.64,4885,21.19,74692.0,4.31,-19.65,-19.81,0,*40
1537210900.84,4886,21.19,74694.5,4.33,-19.51,-19.71,0,*49
1537210902.09,4887,21.19,74692.0,4.31,-19.57,-19.71,0,*4C
1537210903.34,4888,21.19,74694.5,4.33,-19.65,-19.81,0,*4F
1537210904.56,4889,21.19,74694.5,4.33,-19.47,-19.65,0,*44
1537210905.81,4890,21.13,74690.3,4.35,-19.61,-19.75,0,*4F
1537210907.03,4891,21.19,74688.0,4.35,-19.91,-20.05,0,*4C
1537210908.24,4892,21.19,74690.3,4.39,-19.91,-20.05,0,*43
1537210909.46,4893,21.19,74692.0,4.35,-19.91,-19.91,0,*49
1537210910.74,4894,21.19,74690.3,4.35,-19.61,-19.65,0,*4A
1537210911.95,4895,21.19,74692.5,4.35,-19.75,-19.95,0,*41
1537210913.18,4896,21.19,74692.5,4.41,-19.57,-19.75,0,*4F
1537210914.4,4897,21.13,74688.0,4.41,-19.71,-19.85,0,*45
1537210915.59,4898,21.19,74696.3,4.41,-19.47,-19.71,0,*44
1537210916.84,4899,21.19,74694.0,4.41,-19.57,-19.61,0,*45
1537210918.04,4900,21.19,74694.0,4.41,-19.51,-19.71,0,*43
1537210919.26,4901,21.19,74692.5,4.43,-19.71,-19.95,0,*48
1537210920.46,4902,21.19,74692.8,4.41,-19.71,-19.75,0,*47
1537210921.7,4903,21.19,74692.0,4.43,-19.57,-19.71,0,*44
1537210922.9,4904,21.19,74690.0,4.41,-19.71,-19.75,0,*41
1537210924.15,4905,21.19,74694.8,4.43,-19.51,-19.65,0,*41
1537210925.39,4906,21.19,74692.0,4.45,-19.65,-19.81,0,*49
1537210926.61,4907,21.19,74692.8,4.45,-19.95,-20.15,0,*40
1537210927.83,4908,21.13,74690.3,4.45,-19.95,-20.15,0,*4F
1537210929.02,4909,21.19,74694.3,4.45,-20.25,-20.29,0,*40
1537210930.22,4910,21.19,74692.8,4.45,-19.99,-20.29,0,*45
1537210931.43,4911,21.19,74692.5,4.45,-20.25,-20.35,0,*44
1537210932.65,4912,21.19,74694.0,4.47,-20.29,-20.39,0,*45
1537210933.87,4913,21.19,74692.3,4.47,-20.25,-20.39,0,*48
1537210935.07,4914,21.19,74692.8,4.45,-20.09,-20.25,0,*4E
1537210936.29,4915,21.19,74694.0,4.47,-20.25,-20.39,0,*4E
1537210937.54,4916,21.19,74694.0,4.47,-20.19,-20.43,0,*4F
1537210938.73,4917,21.19,74692.5,4.45,-20.09,-20.29,0,*41
1537210939.92,4918,21.19,74692.8,4.45,-19.99,-20.09,0,*4F
1537210941.12,4919,21.13,74690.8,4.45,-19.95,-19.99,0,*41
1537210942.34,4920,21.19,74694.8,4.45,-19.99,-20.15,0,*49
1537210943.56,4921,21.19,74694.5,4.47,-20.05,-20.25,0,*46
1537210944.77,4922,21.19,74692.0,4.47,-20.09,-20.29,0,*45
1537210945.96,4923,21.19,74694.5,4.45,-20.29,-20.43,0,*48
1537210947.16,4924,21.19,74692.5,4.45,-20.25,-20.43,0,*43
1537210948.37,4925,21.19,74692.0,4.47,-20.09,-20.29,0,*42
1537210949.61,4926,21.19,74694.8,4.47,-19.81,-20.05,0,*45
1537210950.82,4927,21.13,74688.8,4.45,-19.85,-20.09,0,*4E
1537210952.08,4928,21.19,74692.3,4.47,-19.95,-20.19,0,*43
1537210953.28,4929,21.13,74690.8,4.49,-20.25,-20.39,0,*4F
1537210954.5,4930,21.19,74694.3,4.49,-20.19,-20.39,0,*48
1537210955.71,4931,21.19,74692.0,4.49,-20.39,-20.43,0,*46
1537210956.96,4932,21.19,74694.5,4.47,-20.39,-20.53,0,*4A
1537210958.18,4933,21.19,74694.5,4.47,-19.95,-20.25,0,*46
1537210959.38,4934,21.19,74690.8,4.49,-19.91,-20.09,0,*45
1537210960.59,4935,21.19,74690.0,4.47,-20.05,-20.29,0,*4F
1537210961.8,4936,21.19,74692.8,4.49,-20.25,-20.39,0,*41
1537210963.01,4937,21.13,74690.5,4.47,-20.09,-20.29,0,*41
1537210964.24,4938,21.13,74688.0,4.47,-20.25,-20.39,0,*41
1537210965.46,4939,21.19,74694.5,4.47,-20.25,-20.39,0,*40
1537210966.66,4940,21.19,74694.3,4.49,-20.25,-20.39,0,*40
1537210967.87,4941,21.19,74694.3,4.49,-20.39,-20.59,0,*4A
1537210969.06,4942,21.13,74690.8,4.49,-20.29,-20.43,0,*43
1537210970.25,4943,21.19,74694.3,4.49,-20.05,-20.29,0,*40
1537210971.47,4944,21.19,74692.5,4.47,-20.25,-20.39,0,*4A
1537210972.72,4945,21.13,74688.8,4.47,-20.19,-20.39,0,*44
1537210973.95,4946,21.19,74692.5,4.47,-20.39,-20.59,0,*43
1537210975.15,4947,21.19,74692.0,4.49,-20.25,-20.39,0,*47
1537210976.35,4948,21.19,74692.3,4.49,-19.95,-20.29,0,*48
1537210977.54,4949,21.19,74694.3,4.49,-20.25,-20.29,0,*48
1537210978.74,4950,21.19,74692.3,4.49,-20.09,-20.39,0,*4F
1537210979.96,4951,21.19,74692.8,4.49,-20.29,-20.53,0,*40
1537210981.16,4952,21.19,74692.0,4.49,-20.69,-20.73,0,*45
1537210982.41,4953,21.13,74692.3,4.47,-20.59,-20.83,0,*46
1537210983.65,4954,21.19,74692.3,4.47,-20.53,-20.69,0,*4F
1537210984.88,4955,21.13,74690.8,4.47,-20.43,-20.59,0,*4C
1537210986.1,4956,21.19,74692.5,4.45,-20.35,-20.59,0,*4C
1537210987.32,4957,21.19,74692.0,4.47,-20.25,-20.43,0,*45
1537210988.57,4958,21.19,74694.0,4.47,-20.29,-20.53,0,*47
1537210989.78,4959,21.19,74692.3,4.47,-20.05,-20.25,0,*49
1537210991.02,4960,21.19,74694.3,4.47,-20.19,-20.29,0,*42
1537210992.25,4961,21.13,74688.0,4.47,-20.25,-20.43,0,*40
1537210993.47,4962,21.19,74692.3,4.47,-20.39,-20.43,0,*4E
1537210994.72,4963,21.19,74692.3,4.47,-20.19,-20.39,0,*40
1537210995.93,4964,21.13,74688.5,4.49,-20.39,-20.59,0,*4D
1537210997.15,4965,21.19,74692.3,4.49,-20.39,-20.53,0,*46
1537210998.4,4966,21.19,74698.0,4.47,-20.19,-20.25,0,*48
1537210999.62,4967,21.13,74688.3,4.47,-20.25,-20.39,0,*4B
1537211000.84,4968,21.19,74694.5,4.47,-20.29,-20.43,0,*45
1537211002.06,4969,21.13,74692.3,4.49,-20.19,-20.43,0,*49
1537211003.28,4970,21.19,74692.0,4.49,-20.19,-20.43,0,*41
1537211004.5,4971,21.19,74692.5,4.49,-20.19,-20.29,0,*4C
1537211005.69,4972,21.19,74694.3,4.49,-20.29,-20.43,0,*40
1537211006.92,4973,21.19,74692.0,4.49,-20.43,-20.53,0,*4C
1537211008.12,4974,21.19,74694.0,4.49,-20.29,-20.43,0,*46
1537211009.31,4975,21.13,74690.3,4.49,-20.05,-20.25,0,*49
1537211010.53,4976,21.13,74690.0,4.49,-20.19,-20.29,0,*4B
1537211011.73,4977,21.13,74690.5,4.49,-19.91,-20.09,0,*42
1537211012.97,4978,21.19,74694.5,4.51,-20.19,-20.39,0,*4D
1537211014.22,4979,21.13,74692.8,4.51,-20.39,-20.53,0,*42
1537211015.42,4980,21.19,74694.3,4.49,-20.43,-20.69,0,*49
1537211016.66,4981,21.19,74692.0,4.51,-20.53,-20.69,0,*40
1537211017.87,4982,21.19,74694.0,4.49,-20.59,-20.73,0,*4B
1537211019.07,4983,21.13,74692.3,4.49,-20.59,-20.73,0,*4A
1537211020.31,4984,21.19,74694.5,4.47,-20.69,-20.79,0,*4A
1537211021.55,4985,21.13,74690.5,4.51,-20.53,-20.69,0,*44
1537211022.76,4986,21.19,74694.5,4.49,-20.69,-20.89,0,*49
1537211023.98,4987,21.13,74692.3,4.49,-20.73,-20.99,0,*42
1537211025.25,4988,21.19,74692.3,4.47,-20.83,-20.99,0,*4C
1537211026.47,4989,21.19,74694.5,4.45,-20.79,-20.93,0,*40
1537211027.67,4990,21.13,74692.0,4.45,-20.69,-20.89,0,*42
1537211028.9,4991,21.13,74690.3,4.47,-20.89,-21.17,0,*49
1537211030.15,4992,21.13,74692.8,4.45,-21.03,-21.23,0,*4C
1537211031.38,4993,21.13,74692.8,4.45,-20.93,-21.23,0,*45
1537211032.6,4994,21.19,74694.5,4.45,-20.79,-20.93,0,*4C
1537211033.84,4995,21.19,74694.3,4.43,-20.59,-20.79,0,*4D
1537211035.09,4996,21.13,74692.3,4.43,-20.43,-20.49,0,*46
1537211036.31,4997,21.19,74694.5,4.41,-20.69,-20.83,0,*4B
1537211037.52,4998,21.19,74692.5,4.45,-20.63,-20.89,0,*40
1537211038.74,4999,21.13,74690.3,4.43,-20.89,-20.93,0,*48
1537211039.96,5000,21.19,74692.3,4.43,-20.63,-20.93,0,*44
1537211041.2,5001,21.13,74692.5,4.43,-20.73,-20.79,0,*40
1537211042.41,5002,21.13,74690.5,4.43,-20.89,-21.09,0,*40
1537211043.63,5003,21.13,74692.3,4.41,-20.83,-20.93,0,*4B
1537211044.85,5004,21.19,74692.5,4.41,-20.73,-21.03,0,*4B
1537211046.07,5005,21.13,74692.8,4.43,-20.93,-21.17,0,*43
1537211047.31,5006,21.13,74692.3,4.43,-20.73,-21.03,0,*4B
1537211048.53,5007,21.13,74690.3,4.41,-20.53,-20.69,0,*47
1537211049.75,5008,21.13,74694.5,4.43,-20.73,-20.89,0,*46
1537211050.98,5009,21.13,74688.0,4.43,-20.63,-20.89,0,*46
1537211052.2,5010,21.13,74690.5,4.41,-20.79,-20.93,0,*4C
1537211053.44,5011,21.19,74694.3,4.41,-20.79,-20.99,0,*47
1537211054.68,5012,21.19,74692.0,4.43,-20.79,-20.93,0,*4C
1537211055.9,5013,21.13,74690.5,4.41,-20.83,-21.09,0,*48
1537211057.09,5014,21.13,74694.0,4.41,-20.73,-20.93,0,*42
1537211058.28,5015,21.19,74692.8,4.41,-20.93,-21.13,0,*44
1537211059.55,5016,21.13,74690.0,4.43,-20.79,-21.03,0,*40
1537211060.79,5017,21.19,74692.0,4.39,-20.99,-21.13,0,*43
1537211062.06,5018,21.13,74688.3,4.39,-20.99,-21.27,0,*4B
1537211063.28,5019,21.13,74694.0,4.35,-20.89,-21.13,0,*40
1537211064.52,5020,21.19,74694.8,4.35,-20.83,-21.13,0,*40
1537211065.74,5021,21.19,74694.5,4.39,-20.89,-21.13,0,*47
1537211066.96,5022,21.13,74694.5,4.35,-20.89,-21.13,0,*48
1537211068.21,5023,21.19,74694.8,4.35,-20.99,-21.17,0,*4C
1537211069.48,5024,21.19,74694.0,4.35,-20.83,-20.99,0,*47
1537211070.72,5025,21.19,74692.0,4.39,-20.59,-20.83,0,*46
1537211071.99,5026,21.13,74692.0,4.35,-20.83,-21.03,0,*47
1537211073.22,5027,21.13,74692.0,4.35,-20.59,-20.73,0,*47
1537211074.46,5028,21.13,74694.0,4.35,-20.69,-20.83,0,*44
1537211075.7,5029,21.13,74692.5,4.35,-20.53,-20.69,0,*48
1537211076.94,5030,21.13,74694.0,4.39,-20.59,-20.89,0,*48
1537211078.18,5031,21.13,74692.0,4.35,-20.59,-20.83,0,*4F
1537211079.44,5032,21.19,74694.0,4.35,-20.83,-20.89,0,*41
1537211080.66,5033,21.19,74692.0,4.35,-20.59,-20.69,0,*49
1537211081.9,5034,21.13,74692.0,4.35,-20.69,-20.83,0,*49
1537211083.13,5035,21.13,74694.5,4.35,-20.73,-20.89,0,*49
1537211084.37,5036,21.13,74690.5,4.35,-20.69,-20.83,0,*4B
1537211085.59,5037,21.13,74692.3,4.35,-20.73,-20.89,0,*4B
1537211086.81,5038,21.19,74692.8,4.35,-20.73,-20.89,0,*44
1537211088.04,5039,21.13,74692.8,4.35,-20.73,-20.89,0,*45
1537211089.26,5040,21.13,74690.5,4.35,-20.73,-20.89,0,*4B
1537211090.5,5041,21.13,74692.0,4.35,-20.73,-20.99,0,*4B
1537211091.77,5042,21.13,74692.0,4.35,-20.83,-21.03,0,*45
1537211093.01,5043,21.13,74692.8,4.35,-20.99,-21.13,0,*4E
1537211094.26,5044,21.13,74692.0,4.35,-20.69,-20.83,0,*4E
1537211095.48,5045,21.13,74690.5,4.33,-20.93,-21.23,0,*47
1537211096.71,5046,21.13,74692.8,4.33,-21.03,-21.17,0,*4B
1537211097.9,5047,21.19,74692.8,4.33,-20.93,-21.09,0,*4D
1537211099.12,5048,21.13,74692.0,4.33,-20.79,-20.93,0,*44
1537211100.32,5049,21.13,74692.8,4.33,-20.93,-21.09,0,*43
1537211101.57,5050,21.13,74694.0,4.31,-20.93,-21.23,0,*41
1537211102.8,5051,21.13,74694.8,4.31,-20.93,-21.17,0,*47
1537211104.04,5052,21.13,74690.5,4.31,-20.63,-20.79,0,*42
1537211105.31,5053,21.13,74688.8,4.31,-20.79,-21.03,0,*44
1537211106.57,5054,21.13,74694.0,4.31,-20.59,-20.79,0,*4D
1537211107.81,5055,21.13,74692.3,4.31,-20.73,-21.03,0,*48
1537211109.04,5056,21.13,74692.0,4.31,-20.93,-21.17,0,*40
1537211110.29,5057,21.13,74694.5,4.31,-21.03,-21.17,0,*49
1537211111.53,5058,21.13,74692.8,4.31,-20.93,-21.33,0,*48
1537211112.76,5059,21.19,74694.3,4.31,-20.93,-21.17,0,*4F
1537211113.96,5060,21.13,74692.0,4.33,-20.89,-20.93,0,*41
1537211115.23,5061,21.13,74688.8,4.31,-20.79,-21.03,0,*45
1537211116.45,5062,21.13,74692.8,4.31,-20.89,-21.09,0,*43
1537211117.7,5063,21.19,74694.8,4.27,-21.03,-21.27,0,*4A
1537211118.92,5064,21.13,74692.5,4.29,-21.09,-21.27,0,*49
1537211120.17,5065,21.13,74694.5,4.29,-20.99,-21.27,0,*40
1537211121.39,5066,21.13,74692.3,4.29,-20.83,-21.09,0,*44
1537211122.61,5067,21.13,74694.3,4.29,-20.79,-21.09,0,*40
1537211123.84,5068,21.13,74690.0,4.29,-20.93,-21.23,0,*43
1537211125.09,5069,21.13,74692.3,4.29,-20.99,-21.23,0,*48
1537211126.31,5070,21.13,74694.3,4.27,-21.13,-21.33,0,*4C
1537211127.5,5071,21.13,74694.0,4.27,-20.89,-21.13,0,*4D
1537211128.72,5072,21.13,74690.8,4.27,-20.59,-20.83,0,*4B
1537211129.93,5073,21.13,74692.3,4.27,-20.89,-20.99,0,*4C
1537211131.15,5074,21.13,74690.8,4.29,-20.83,-21.09,0,*47
1537211132.37,5075,21.13,74688.3,4.27,-20.99,-21.17,0,*4C
1537211133.56,5076,21.13,74692.5,4.29,-20.93,-21.09,0,*44
1537211134.8,5077,21.13,74694.5,4.27,-20.83,-21.03,0,*40
1537211136.02,5078,21.13,74692.8,4.25,-20.89,-21.13,0,*46
1537211137.22,5079,21.13,74692.0,4.23,-20.73,-20.89,0,*46
1537211138.44,5080,21.13,74692.3,4.25,-20.39,-20.59,0,*45
1537211139.66,5081,21.13,74694.5,4.25,-20.39,-20.59,0,*44
1537211140.91,5082,21.13,74692.0,4.27,-20.49,-20.53,0,*48
1537211142.12,5083,21.13,74694.5,4.27,-20.25,-20.49,0,*48
1537211143.37,5084,21.13,74688.5,4.27,-20.19,-20.49,0,*40
1537211144.61,5085,21.13,74692.8,4.27,-20.15,-20.49,0,*4D
1537211145.82,5086,21.13,74690.5,4.27,-20.49,-20.69,0,*45
1537211147.04,5087,21.13,74692.8,4.27,-20.59,-20.83,0,*41
1537211148.25,5088,21.13,74694.5,4.27,-20.53,-20.69,0,*40
1537211149.44,5089,21.13,74694.0,4.27,-20.93,-21.13,0,*41
1537211150.66,5090,21.13,74688.8,4.29,-20.79,-20.93,0,*4A
1537211151.88,5091,21.13,74690.5,4.27,-20.59,-20.83,0,*46
1537211153.11,5092,21.13,74692.0,4.29,-20.49,-20.63,0,*44
1537211154.32,5093,21.13,74694.3,4.27,-20.53,-20.73,0,*41
1537211155.55,5094,21.13,74692.3,4.29,-20.53,-20.69,0,*43
1537211156.76,5095,21.13,74692.5,4.27,-20.35,-20.59,0,*4F
1537211158.01,5096,21.13,74694.0,4.29,-20.49,-20.53,0,*43
1537211159.23,5097,21.13,74692.3,4.27,-20.43,-20.53,0,*46
1537211160.45,5098,21.13,74692.3,4.27,-20.35,-20.59,0,*42
1537211161.7,5099,21.19,74694.8,4.29,-20.19,-20.49,0,*42
1537211162.92,5100,21.13,74694.8,4.31,-20.29,-20.59,0,*48
1537211164.14,5101,21.13,74692.0,4.31,-20.25,-20.43,0,*4E
1537211165.36,5102,21.13,74696.3,4.31,-20.09,-20.29,0,*4F
1537211166.58,5103,21.13,74694.8,4.33,-20.25,-20.49,0,*44
1537211167.81,5104,21.13,74694.0,4.31,-20.29,-20.43,0,*47
1537211169.04,5105,21.13,74694.8,4.31,-20.43,-20.59,0,*41
1537211170.27,5106,21.13,74694.0,4.31,-20.39,-20.59,0,*4F
1537211171.51,5107,21.13,74692.3,4.31,-20.29,-20.49,0,*4E
1537211172.73,5108,21.13,74694.0,4.33,-20.29,-20.49,0,*43
1537211173.98,5109,21.13,74694.0,4.31,-20.15,-20.39,0,*48
1537211175.23,5110,21.13,74692.5,4.31,-20.15,-20.29,0,*41
1537211176.46,5111,21.13,74694.8,4.33,-20.39,-20.49,0,*4A
1537211177.68,5112,21.13,74694.3,4.33,-20.29,-20.49,0,*48
1537211178.88,5113,21.13,74696.0,4.33,-20.43,-20.59,0,*44
1537211180.1,5114,21.13,74694.0,4.33,-20.29,-20.49,0,*4E
1537211181.31,5115,21.13,74694.8,4.33,-20.43,-20.63,0,*4B
1537211182.53,5116,21.13,74694.8,4.33,-20.73,-21.03,0,*4C
1537211183.73,5117,21.13,74690.5,4.33,-20.89,-21.09,0,*42
1537211184.95,5118,21.13,74694.8,4.33,-20.89,-21.03,0,*47
1537211186.2,5119,21.13,74694.0,4.33,-20.79,-21.03,0,*49
1537211187.42,5120,21.13,74696.0,4.31,-20.89,-21.09,0,*44
1537211188.69,5121,21.13,74694.0,4.31,-20.79,-21.03,0,*40
1537211189.91,5122,21.13,74694.0,4.31,-20.89,-21.09,0,*46
1537211191.12,5123,21.13,74692.8,4.33,-20.63,-20.89,0,*48
1537211192.37,5124,21.13,74696.3,4.31,-20.63,-20.79,0,*42
1537211193.6,5125,21.13,74690.5,4.31,-20.59,-20.73,0,*40
1537211194.8,5126,21.13,74694.3,4.33,-20.59,-20.63,0,*40
1537211196.03,5127,21.13,74694.5,4.31,-20.63,-20.93,0,*45
1537211197.26,5128,21.13,74694.8,4.31,-20.93,-21.17,0,*48
1537211198.49,5129,21.13,74694.3,4.31,-20.63,-20.89,0,*40
1537211199.69,5130,21.13,74690.8,4.33,-20.89,-21.09,0,*47
1537211200.89,5131,21.13,74692.0,4.33,-20.89,-21.17,0,*49
1537211202.14,5132,21.13,74692.0,4.31,-20.89,-21.03,0,*4D
1537211203.41,5133,21.13,74694.5,4.31,-21.03,-21.33,0,*4C
1537211204.64,5134,21.13,74694.0,4.31,-20.93,-21.17,0,*45
1537211205.89,5135,21.13,74694.5,4.31,-20.93,-21.03,0,*41
1537211207.14,5136,21.13,74690.0,4.31,-20.49,-20.73,0,*43
1537211208.37,5137,21.13,74692.3,4.31,-20.73,-20.89,0,*4E
1537211209.56,5138,21.13,74694.8,4.29,-20.93,-21.13,0,*44
1537211210.79,5139,21.13,74694.3,4.29,-20.83,-21.13,0,*44
1537211212.04,5140,21.13,74694.5,4.29,-20.99,-21.23,0,*42
1537211213.26,5141,21.13,74692.3,4.27,-20.89,-21.03,0,*4E
1537211214.51,5142,21.13,74694.3,4.29,-20.79,-20.83,0,*45
1537211215.73,5143,21.13,74694.0,4.27,-20.59,-20.83,0,*48
1537211216.94,5144,21.13,74694.8,4.27,-20.49,-20.73,0,*41
1537211218.17,5145,21.13,74692.3,4.29,-20.49,-20.63,0,*4F
1537211219.39,5146,21.13,74690.5,4.29,-20.29,-20.49,0,*42
1537211220.64,5147,21.13,74692.5,4.29,-20.49,-20.53,0,*4E
1537211221.86,5148,21.13,74694.5,4.29,-20.53,-20.69,0,*43
1537211223.09,5149,21.13,74694.0,4.29,-20.53,-20.63,0,*48
1537211224.3,5150,21.13,74692.5,4.29,-20.43,-20.63,0,*41
1537211225.52,5151,21.13,74690.3,4.29,-20.53,-20.69,0,*4B
1537211226.75,5152,21.13,74694.5,4.29,-20.49,-20.63,0,*49
1537211228.0,5153,21.13,74688.8,4.31,-20.49,-20.73,0,*40
1537211229.25,5154,21.13,74692.8,4.31,-20.49,-20.73,0,*47
1537211230.45,5155,21.13,74694.5,4.33,-20.59,-20.73,0,*45
1537211231.7,5156,21.13,74692.5,4.31,-20.49,-20.73,0,*45
1537211232.93,5157,21.13,74694.5,4.29,-20.63,-20.79,0,*4F
1537211234.15,5158,21.13,74692.5,4.29,-20.53,-20.69,0,*42
1537211235.37,5159,21.13,74694.0,4.29,-20.53,-20.69,0,*43
1537211236.57,5160,21.13,74694.0,4.27,-20.43,-20.63,0,*4C
1537211237.8,5161,21.13,74692.5,4.31,-20.59,-20.63,0,*41
1537211239.03,5162,21.13,74694.0,4.31,-20.43,-20.63,0,*49
1537211240.28,5163,21.13,74692.5,4.29,-20.35,-20.53,0,*43
1537211241.51,5164,21.13,74694.0,4.31,-20.43,-20.63,0,*4F
1537211242.76,5165,21.13,74694.5,4.31,-20.49,-20.73,0,*45
1537211243.97,5166,21.13,74694.3,4.33,-20.43,-20.59,0,*46
1537211245.19,5167,21.13,74694.5,4.29,-20.63,-20.79,0,*4C
1537211246.44,5168,21.13,74694.0,4.31,-20.49,-20.63,0,*49
1537211247.68,5169,21.13,74694.8,4.31,-20.43,-20.63,0,*42
1537211248.93,5170,21.13,74694.0,4.31,-20.59,-20.79,0,*4A
1537211250.16,5171,21.13,74694.3,4.31,-20.59,-20.73,0,*41
1537211251.39,5172,21.13,74694.5,4.31,-20.39,-20.59,0,*4C
1537211252.59,5173,21.13,74694.5,4.33,-20.25,-20.59,0,*42
1537211253.81,5174,21.13,74692.5,4.31,-20.09,-20.39,0,*4F
1537211255.04,5175,21.13,74694.5,4.33,-20.15,-20.39,0,*41
1537211256.24,5176,21.13,74694.3,4.33,-20.25,-20.39,0,*41
1537211257.47,5177,21.13,74694.3,4.31,-20.25,-20.43,0,*4F
1537211258.69,5178,21.13,74692.3,4.31,-20.09,-20.39,0,*43
1537211259.89,5179,21.13,74690.8,4.33,-20.25,-20.43,0,*43
1537211261.09,5180,21.13,74690.5,4.33,-20.25,-20.43,0,*45
1537211262.32,5181,21.13,74694.0,4.33,-20.49,-20.63,0,*4C
1537211263.52,5182,21.13,74694.8,4.33,-20.43,-20.59,0,*4C
1537211264.75,5183,21.13,74694.3,4.35,-20.59,-20.73,0,*48
1537211265.98,5184,21.13,74692.0,4.33,-20.49,-20.73,0,*48
1537211267.18,5185,21.13,74692.5,4.33,-20.63,-20.73,0,*41
1537211268.39,5186,21.13,74692.0,4.33,-20.73,-20.79,0,*49
1537211269.64,5187,21.13,74694.8,4.31,-20.63,-20.79,0,*4B
1537211270.85,5188,21.13,74690.5,4.33,-20.63,-20.89,0,*49
1537211272.05,5189,21.13,74692.5,4.33,-20.43,-20.63,0,*4E
1537211273.27,5190,21.13,74688.3,4.33,-20.73,-20.79,0,*4E
1537211274.49,5191,21.13,74692.3,4.33,-20.63,-20.79,0,*4E
1537211275.7,5192,21.13,74696.0,4.33,-20.43,-20.63,0,*44
1537211276.89,5193,21.13,74690.8,4.33,-20.73,-20.93,0,*49
1537211278.1,5194,21.13,74694.0,4.33,-20.73,-20.89,0,*45
1537211279.3,5195,21.13,74694.0,4.33,-20.59,-20.73,0,*49
1537211280.55,5196,21.13,74688.8,4.31,-20.63,-20.79,0,*4B
1537211281.76,5197,21.13,74692.0,4.33,-20.59,-20.59,0,*43
1537211283.01,5198,21.13,74694.8,4.31,-20.49,-20.73,0,*47
1537211284.23,5199,21.13,74694.0,4.33,-20.49,-20.73,0,*44
1537211285.46,5200,21.13,74692.5,4.35,-20.39,-20.59,0,*4E
1537211286.7,5201,21.13,74694.5,4.35,-20.53,-20.69,0,*40
1537211287.92,5202,21.13,74694.0,4.35,-20.43,-20.69,0,*42
1537211289.14,5203,21.13,74694.0,4.35,-20.39,-20.69,0,*4E
1537211290.36,5204,21.13,74694.8,4.35,-20.43,-20.69,0,*44
1537211291.59,5205,21.13,74694.0,4.33,-20.59,-20.79,0,*49
1537211292.81,5206,21.13,74692.8,4.33,-20.49,-20.73,0,*41
1537211294.0,5207,21.13,74692.3,4.33,-20.29,-20.59,0,*4E
1537211295.25,5208,21.13,74694.0,4.35,-20.25,-20.53,0,*41
1537211296.47,5209,21.13,74692.0,4.35,-20.25,-20.39,0,*4C
1537211297.71,5210,21.13,74692.5,4.39,-20.35,-20.43,0,*44
1537211298.93,5211,21.13,74692.5,4.35,-20.25,-20.43,0,*48
1537211300.15,5212,21.13,74694.5,4.35,-20.25,-20.39,0,*46
1537211301.38,5213,21.13,74692.5,4.39,-20.39,-20.59,0,*40
1537211302.6,5214,21.13,74694.3,4.35,-20.25,-20.39,0,*40
1537211303.86,5215,21.13,74694.5,4.39,-20.19,-20.35,0,*4E
1537211305.11,5216,21.13,74692.0,4.39,-20.39,-20.53,0,*4F
1537211306.33,5217,21.13,74694.0,4.39,-20.09,-20.39,0,*41